When you browse on this site, cookies collect data to enhance your experience and personalize the content and advertising you see.
Visit our Privacy Policy to learn more. By continuing to use the site, you agree to this use of cookies and data.
  • In Czech Republic
  • List of Countries
  • For 7 days
  • Water Temperature
  • Satellite Maps
  • Weather Map
  • Weather Widgets
  • user-avatar
    Login

    Hourly Weather Kandi

    Today, 17 November, Saturday

    Time Temperature Precipitation Wind Pressure Humidity
    00:00 +27°C° 0 mm 1 mps 737 mmHg 19%
    01:00 +27°C° 0 mm 1 mps 737 mmHg 20%
    02:00 +26°C° 0 mm 1 mps 737 mmHg 21%
    03:00 +26°C° 0 mm 1 mps 737 mmHg 22%
    04:00 +25°C° 0 mm 1 mps 737 mmHg 23%
    05:00 +25°C° 0 mm 1 mps 737 mmHg 24%
    06:00 +25°C° 0 mm 1 mps 738 mmHg 25%
    07:00 +28°C° 0 mm 1 mps 738 mmHg 23%
    08:00 +31°C° 0 mm 1 mps 738 mmHg 20%
    09:00 +34°C° 0 mm 1 mps 739 mmHg 17%
    10:00 +37°C° 0 mm 1 mps 738 mmHg 15%
    11:00 +40°C° 0 mm 1 mps 738 mmHg 13%
    12:00 +40°C° 0 mm 0 mps 737 mmHg 11%
    13:00 +40°C° 0 mm 0 mps 737 mmHg 11%
    14:00 +39°C° 0 mm 0 mps 736 mmHg 11%
    15:00 +39°C° 0 mm 0 mps 735 mmHg 10%
    16:00 +39°C° 0 mm 1 mps 735 mmHg 12%
    17:00 +36°C° 0 mm 1 mps 735 mmHg 13%
    18:00 +33°C° 0 mm 1 mps 735 mmHg 14%
    19:00 +32°C° 0 mm 1 mps 736 mmHg 15%
    20:00 +32°C° 0 mm 1 mps 736 mmHg 15%
    21:00 +31°C° 0 mm 1 mps 737 mmHg 15%
    22:00 +30°C° 0 mm 1 mps 737 mmHg 15%
    23:00 +30°C° 0 mm 1 mps 737 mmHg 16%

    Tomorrow, 18 November, Sunday

    Time Temperature Precipitation Wind Pressure Humidity
    00:00 +29°C° 0 mm 1 mps 736 mmHg 16%
    01:00 +28°C° 0 mm 1 mps 736 mmHg 17%
    02:00 +26°C° 0 mm 0 mps 736 mmHg 18%
    03:00 +25°C° 0 mm 0 mps 736 mmHg 19%
    04:00 +25°C° 0 mm 0 mps 736 mmHg 20%
    05:00 +26°C° 0 mm 1 mps 736 mmHg 22%
    06:00 +26°C° 0 mm 1 mps 737 mmHg 23%
    07:00 +29°C° 0 mm 1 mps 737 mmHg 24%
    08:00 +32°C° 0 mm 1 mps 738 mmHg 25%
    09:00 +36°C° 0 mm 2 mps 738 mmHg 26%
    10:00 +39°C° 0 mm 1 mps 738 mmHg 22%
    11:00 +41°C° 0 mm 1 mps 737 mmHg 18%
    12:00 +41°C° 0 mm 0 mps 737 mmHg 14%
    13:00 +41°C° 0 mm 0 mps 736 mmHg 13%
    14:00 +40°C° 0 mm 0 mps 735 mmHg 13%
    15:00 +40°C° 0 mm 0 mps 734 mmHg 12%
    16:00 +38°C° 0 mm 0 mps 734 mmHg 14%
    17:00 +37°C° 0 mm 1 mps 735 mmHg 15%
    18:00 +35°C° 0 mm 1 mps 735 mmHg 17%
    19:00 +34°C° 0 mm 1 mps 735 mmHg 16%
    20:00 +33°C° 0 mm 1 mps 736 mmHg 16%
    21:00 +32°C° 0 mm 1 mps 736 mmHg 16%
    22:00 +32°C° 0 mm 1 mps 736 mmHg 16%
    23:00 +31°C° 0 mm 1 mps 736 mmHg 16%

    Day after tomorrow, 19 November, Monday

    Time Temperature Precipitation Wind Pressure Humidity
    00:00 +30°C° 0 mm 1 mps 736 mmHg 16%
    01:00 +27°C° 0 mm 0 mps 736 mmHg 17%
    02:00 +27°C° 0 mm 0 mps 735 mmHg 18%
    03:00 +26°C° 0 mm 0 mps 735 mmHg 19%
    04:00 +26°C° 0 mm 0 mps 735 mmHg 20%
    05:00 +28°C° 0 mm 1 mps 735 mmHg 20%
    06:00 +27°C° 0 mm 1 mps 736 mmHg 21%
    07:00 +30°C° 0 mm 1 mps 736 mmHg 22%
    08:00 +33°C° 0 mm 1 mps 737 mmHg 22%
    09:00 +37°C° 0 mm 2 mps 738 mmHg 22%
    10:00 +39°C° 0 mm 1 mps 737 mmHg 19%
    11:00 +41°C° 0 mm 1 mps 736 mmHg 15%
    12:00 +43°C° 0 mm 1 mps 736 mmHg 12%
    13:00 +43°C° 0 mm 1 mps 735 mmHg 12%
    14:00 +43°C° 0 mm 1 mps 734 mmHg 12%
    15:00 +43°C° 0 mm 1 mps 733 mmHg 11%
    16:00 +41°C° 0 mm 1 mps 733 mmHg 13%
    17:00 +37°C° 0 mm 1 mps 733 mmHg 15%
    18:00 +35°C° 0 mm 1 mps 734 mmHg 16%
    19:00 +34°C° 0 mm 1 mps 734 mmHg 17%
    20:00 +33°C° 0 mm 1 mps 735 mmHg 17%
    21:00 +33°C° 0 mm 1 mps 735 mmHg 17%
    22:00 +32°C° 0 mm 1 mps 735 mmHg 19%
    23:00 +31°C° 0 mm 1 mps 735 mmHg 20%

    20 November, Tuesday

    Time Temperature Precipitation Wind Pressure Humidity
    00:00 +30°C° 0 mm 1 mps 735 mmHg 22%
    01:00 +30°C° 0 mm 1 mps 735 mmHg 25%
    02:00 +30°C° 0 mm 1 mps 735 mmHg 28%
    03:00 +29°C° 0 mm 1 mps 735 mmHg 31%
    04:00 +29°C° 0 mm 1 mps 735 mmHg 36%
    05:00 +28°C° 0 mm 1 mps 736 mmHg 42%
    06:00 +28°C° 0 mm 1 mps 736 mmHg 47%
    07:00 +30°C° 0 mm 1 mps 736 mmHg 44%
    08:00 +32°C° 0 mm 2 mps 737 mmHg 41%
    09:00 +36°C° 0 mm 2 mps 738 mmHg 38%
    10:00 +39°C° 0 mm 1 mps 737 mmHg 30%
    11:00 +42°C° 0 mm 1 mps 737 mmHg 23%
    12:00 +42°C° 0 mm 0 mps 736 mmHg 16%
    13:00 +41°C° 0 mm 0 mps 736 mmHg 15%
    14:00 +44°C° 0 mm 1 mps 735 mmHg 15%
    15:00 +43°C° 0 mm 1 mps 734 mmHg 14%
    16:00 +41°C° 0 mm 1 mps 734 mmHg 16%
    17:00 +39°C° 0 mm 1 mps 734 mmHg 18%
    18:00 +35°C° 0 mm 1 mps 735 mmHg 19%
    19:00 +35°C° 0 mm 1 mps 735 mmHg 20%
    20:00 +34°C° 0 mm 1 mps 736 mmHg 20%
    21:00 +33°C° 0 mm 1 mps 737 mmHg 21%
    22:00 +32°C° 0 mm 1 mps 736 mmHg 21%
    23:00 +32°C° 0 mm 1 mps 736 mmHg 22%

    21 November, Wednesday

    Time Temperature Precipitation Wind Pressure Humidity
    00:00 +31°C° 0 mm 1 mps 736 mmHg 23%
    01:00 +30°C° 0 mm 1 mps 736 mmHg 25%
    02:00 +30°C° 0 mm 1 mps 735 mmHg 27%
    03:00 +29°C° 0 mm 1 mps 735 mmHg 28%
    04:00 +27°C° 0 mm 0 mps 735 mmHg 30%
    05:00 +26°C° 0 mm 0 mps 736 mmHg 32%
    06:00 +26°C° 0 mm 0 mps 736 mmHg 34%
    07:00 +29°C° 0 mm 0 mps 737 mmHg 31%
    08:00 +33°C° 0 mm 1 mps 737 mmHg 29%
    09:00 +36°C° 0 mm 1 mps 738 mmHg 26%
    10:00 +39°C° 0 mm 1 mps 737 mmHg 22%
    11:00 +40°C° 0 mm 2 mps 736 mmHg 17%
    12:00 +42°C° 0 mm 2 mps 736 mmHg 13%
    13:00 +42°C° 0 mm 2 mps 735 mmHg 12%
    14:00 +42°C° 0 mm 2 mps 734 mmHg 10%
    15:00 +43°C° 0 mm 2 mps 733 mmHg 9%
    16:00 +40°C° 0 mm 2 mps 734 mmHg 10%
    17:00 +38°C° 0 mm 2 mps 734 mmHg 11%
    18:00 +35°C° 0 mm 1 mps 735 mmHg 12%
    19:00 +34°C° 0 mm 1 mps 735 mmHg 12%
    20:00 +33°C° 0 mm 1 mps 735 mmHg 12%
    21:00 +32°C° 0 mm 1 mps 736 mmHg 13%
    22:00 +31°C° 0 mm 1 mps 736 mmHg 13%
    23:00 +31°C° 0 mm 1 mps 736 mmHg 14%

    22 November, Thursday

    Time Temperature Precipitation Wind Pressure Humidity
    00:00 +30°C° 0 mm 1 mps 735 mmHg 14%
    01:00 +30°C° 0 mm 1 mps 735 mmHg 16%
    02:00 +29°C° 0 mm 1 mps 735 mmHg 18%
    03:00 +28°C° 0 mm 1 mps 735 mmHg 19%
    04:00 +28°C° 0 mm 1 mps 735 mmHg 22%
    05:00 +27°C° 0 mm 1 mps 736 mmHg 25%
    06:00 +27°C° 0 mm 1 mps 736 mmHg 28%
    07:00 +29°C° 0 mm 1 mps 737 mmHg 29%
    08:00 +32°C° 0 mm 1 mps 737 mmHg 29%
    09:00 +34°C° 0 mm 1 mps 738 mmHg 30%
    10:00 +37°C° 0 mm 1 mps 737 mmHg 25%
    11:00 +40°C° 0 mm 1 mps 736 mmHg 19%
    12:00 +43°C° 0 mm 1 mps 735 mmHg 14%
    13:00 +43°C° 0 mm 1 mps 735 mmHg 12%
    14:00 +42°C° 0 mm 2 mps 734 mmHg 11%
    15:00 +42°C° 0 mm 2 mps 733 mmHg 10%
    16:00 +40°C° 0 mm 2 mps 734 mmHg 11%
    17:00 +37°C° 0 mm 1 mps 734 mmHg 12%
    18:00 +34°C° 0 mm 1 mps 734 mmHg 12%
    19:00 +34°C° 0 mm 1 mps 734 mmHg 13%
    20:00 +33°C° 0 mm 1 mps 735 mmHg 13%
    21:00 +32°C° 0 mm 1 mps 735 mmHg 13%
    22:00 +31°C° 0 mm 1 mps 735 mmHg 15%
    23:00 +30°C° 0 mm 1 mps 735 mmHg 16%
    Show more